EW4692 Narbonne FR current weather conditions

sailwx.info

Wind from 281 at 7 knots gusting 14

Air temperature 30.0° C
Dewpoint 14.1° C

Last reported at 2020-Aug-14 10:02 UTC.
Time now 2020-Aug-14 11:03 UTC

Location: N 43°12' E 002°59'.
View on Google Maps.

See reports from other nearby stations

  
Tides and Currents Weather Stations Pressure Air Temp Water Temp Dewpoint Dewpoint Depression Visibility Wind Speed Wind Dir Waves Ship Positions
date/time (UTC)wind fromknots sea level pressurealtimeterstation pressurevisibilityair tempwater tempwave heightnotes
2020-Aug-14 10:02 281 7 gusting 14 30.0
2020-Aug-14 09:57 291 8 gusting 14 29.4
2020-Aug-14 09:52 279 8 gusting 14 29.4
2020-Aug-14 09:47 306 8 gusting 14 29.4
2020-Aug-14 09:42 281 8 gusting 14 28.9
2020-Aug-14 09:37 302 8 gusting 14 28.9
2020-Aug-14 09:32 315 8 gusting 14 28.9
2020-Aug-14 09:27 282 7 gusting 15 28.9
2020-Aug-14 09:22 283 7 gusting 15 28.9
2020-Aug-14 09:17 280 9 gusting 15 28.3
2020-Aug-14 09:12 303 9 gusting 14 28.3
2020-Aug-14 09:07 292 8 gusting 14 28.3
2020-Aug-14 09:02 271 7 gusting 13 28.3
2020-Aug-14 08:57 311 7 gusting 14 28.3
2020-Aug-14 08:52 244 7 gusting 14 27.8
2020-Aug-14 08:47 294 8 gusting 14 27.8
2020-Aug-14 08:42 246 9 gusting 14 27.2
2020-Aug-14 08:37 302 8 gusting 13 27.2
2020-Aug-14 08:32 278 7 gusting 14 27.2
2020-Aug-14 08:30 298 6 gusting 13 26.7
2020-Aug-14 08:22 300 8 gusting 15 26.7
2020-Aug-14 08:17 286 8 gusting 13 26.7
2020-Aug-14 08:12 267 8 gusting 13 26.1
2020-Aug-14 08:07 296 8 gusting 13 26.1
2020-Aug-14 08:02 270 7 gusting 13 26.1
2020-Aug-14 07:57 294 7 gusting 13 26.1
2020-Aug-14 07:52 261 8 gusting 13 25.6
2020-Aug-14 07:47 264 8 gusting 15 25.6
2020-Aug-14 07:42 293 8 gusting 15 25.0
2020-Aug-14 07:37 273 7 gusting 13 25.0
2020-Aug-14 07:32 279 6 gusting 13 25.0
2020-Aug-14 07:27 300 7 gusting 14 25.0
2020-Aug-14 07:22 317 7 gusting 14 24.4
2020-Aug-14 07:17 315 7 gusting 13 24.4
2020-Aug-14 07:12 279 7 gusting 13 24.4
2020-Aug-14 07:07 304 7 gusting 13 23.9
2020-Aug-14 07:02 277 7 gusting 13 23.3
2020-Aug-14 06:57 294 6 gusting 13 23.3
2020-Aug-14 06:52 290 6 gusting 13 23.3
2020-Aug-14 06:47 292 6 gusting 13 22.8
2020-Aug-14 06:42 304 7 gusting 13 22.8
2020-Aug-14 06:37 286 8 gusting 13 22.2
2020-Aug-14 06:32 271 9 gusting 13 22.2
2020-Aug-14 06:27 288 8 gusting 13 22.2
2020-Aug-14 06:22 267 7 gusting 13 21.7
2020-Aug-14 06:17 318 7 gusting 13 21.7
2020-Aug-14 06:12 304 7 gusting 12 21.7
2020-Aug-14 06:07 279 6 gusting 11 21.1
2020-Aug-14 06:02 306 6 gusting 11 21.1
2020-Aug-14 05:57 293 6 gusting 13 21.1
2020-Aug-14 05:52 269 7 gusting 13 20.6
2020-Aug-14 05:47 302 7 gusting 13 20.6
2020-Aug-14 05:42 262 7 gusting 13 20.6
2020-Aug-14 05:37 275 7 gusting 13 20.6
2020-Aug-14 05:32 272 7 gusting 12 20.6
2020-Aug-14 05:27 286 7 gusting 12 20.6
2020-Aug-14 05:22 269 7 gusting 12 20.0
2020-Aug-14 05:17 294 6 gusting 11 20.0
2020-Aug-14 05:12 285 6 gusting 10 20.0
2020-Aug-14 05:07 285 6 gusting 13 20.0
2020-Aug-14 05:02 273 6 gusting 13 20.0
2020-Aug-14 04:57 285 7 gusting 12 20.0
2020-Aug-14 04:52 242 6 gusting 12 20.0
2020-Aug-14 04:47 261 6 gusting 11 20.6
2020-Aug-14 04:45 281 6 gusting 11 20.0
2020-Aug-14 04:37 271 6 gusting 12 20.6
2020-Aug-14 04:32 263 6 gusting 12 20.6
2020-Aug-14 04:27 254 6 gusting 12 20.6
2020-Aug-14 04:22 296 6 gusting 12 20.6
2020-Aug-14 04:17 279 7 gusting 12 20.6
2020-Aug-14 04:12 290 7 gusting 12 20.6
2020-Aug-14 04:07 309 7 gusting 12 20.6
2020-Aug-14 04:02 302 7 gusting 12 20.6
2020-Aug-14 04:00 292 7 gusting 12 20.6
2020-Aug-14 03:52 278 6 gusting 11 20.6
2020-Aug-14 03:47 293 7 gusting 11 20.6
2020-Aug-14 03:45 287 6 gusting 11 20.6
2020-Aug-14 03:37 252 6 gusting 13 20.6
2020-Aug-14 03:32 270 6 gusting 12 20.6
2020-Aug-14 03:27 294 7 gusting 13 21.1
2020-Aug-14 03:22 264 7 gusting 13 21.1
2020-Aug-14 03:17 290 7 gusting 14 21.1
2020-Aug-14 03:12 302 7 gusting 14 21.1
2020-Aug-14 03:07 279 8 gusting 14 21.1
2020-Aug-14 03:02 291 7 gusting 12 21.1
2020-Aug-14 02:57 294 6 gusting 12 21.1
2020-Aug-14 02:52 286 6 gusting 13 21.1
2020-Aug-14 02:47 306 6 gusting 13 21.1
2020-Aug-14 02:42 279 8 gusting 13 21.1
2020-Aug-14 02:37 273 8 gusting 13 21.1
2020-Aug-14 02:32 319 8 gusting 13 21.1
2020-Aug-14 02:27 265 8 gusting 16 21.7
2020-Aug-14 02:22 269 9 gusting 16 21.7
2020-Aug-14 02:17 263 8 gusting 16 21.7
2020-Aug-14 02:12 277 8 gusting 13 21.7
2020-Aug-14 02:07 274 8 gusting 13 21.7
2020-Aug-14 02:02 265 8 gusting 13 21.1
2020-Aug-14 01:57 282 8 gusting 13 21.7
2020-Aug-14 01:52 290 8 gusting 14 21.7
2020-Aug-14 01:47 280 8 gusting 14 21.7
2020-Aug-14 01:42 268 7 gusting 14 21.7
2020-Aug-14 01:37 284 7 gusting 12 21.7
2020-Aug-14 01:32 263 7 gusting 13 21.7
2020-Aug-14 01:27 275 6 gusting 13 21.7
2020-Aug-14 01:22 269 7 gusting 14 21.7
2020-Aug-14 01:17 283 8 gusting 14 22.2
2020-Aug-14 01:12 290 8 gusting 14 22.2
2020-Aug-14 01:07 270 8 gusting 14 22.2
2020-Aug-14 01:02 278 8 gusting 16 22.2
2020-Aug-14 00:57 292 8 gusting 16 22.2
2020-Aug-14 00:52 296 8 gusting 16 22.8
2020-Aug-14 00:47 271 8 gusting 15 22.8
2020-Aug-14 00:42 288 8 gusting 16 22.8
2020-Aug-14 00:37 274 9 gusting 16 22.8
2020-Aug-14 00:27 295 9 gusting 14 22.8
2020-Aug-14 00:22 255 9 gusting 16 23.3
2020-Aug-14 00:17 302 9 gusting 16 23.3
2020-Aug-14 00:12 276 9 gusting 17 23.3
2020-Aug-14 00:07 298 8 gusting 17 23.3
2020-Aug-14 00:02 287 9 gusting 18 23.3
2020-Aug-13 23:07 276 9 gusting 16 23.9
2020-Aug-13 23:02 265 9 gusting 16 23.9
2020-Aug-13 22:57 277 9 gusting 15 23.9
2020-Aug-13 22:52 340 9 gusting 17 23.9
2020-Aug-13 22:47 296 10 gusting 17 23.9
2020-Aug-13 22:42 281 10 gusting 17 23.9
2020-Aug-13 22:37 280 9 gusting 15 23.9
2020-Aug-13 22:32 294 9 gusting 15 23.9
2020-Aug-13 22:27 250 10 gusting 15 23.9
2020-Aug-13 22:22 283 9 gusting 14 23.9
2020-Aug-13 22:17 284 9 gusting 16 23.9
2020-Aug-13 22:12 238 10 gusting 17 23.9
2020-Aug-13 22:07 298 10 gusting 17 23.9
2020-Aug-13 22:02 294 9 gusting 17 23.9
2020-Aug-13 21:57 278 9 gusting 16 23.9
2020-Aug-13 21:52 272 9 gusting 16 23.9
2020-Aug-13 21:47 286 8 gusting 17 23.9
2020-Aug-13 21:42 246 8 gusting 17 23.9
2020-Aug-13 21:37 298 8 gusting 17 23.9
2020-Aug-13 21:32 280 8 gusting 14 23.9
2020-Aug-13 21:27 296 8 gusting 15 23.9
2020-Aug-13 21:22 286 8 gusting 15 23.9
2020-Aug-13 21:17 252 8 gusting 15 23.9
2020-Aug-13 21:12 286 9 gusting 15 23.9
2020-Aug-13 21:07 304 9 gusting 14 24.4
2020-Aug-13 21:02 271 9 gusting 14 24.4
2020-Aug-13 21:00 275 9 gusting 14 23.9
2020-Aug-13 20:52 317 8 gusting 13 24.4
2020-Aug-13 20:47 291 8 gusting 14 24.4
2020-Aug-13 20:42 321 8 gusting 14 24.4
2020-Aug-13 20:37 279 8 gusting 14 24.4
2020-Aug-13 20:32 283 9 gusting 14 24.4
2020-Aug-13 20:27 309 8 gusting 14 24.4
2020-Aug-13 20:22 286 8 gusting 13 24.4
2020-Aug-13 20:17 250 7 gusting 16 24.4
2020-Aug-13 20:15 267 9 gusting 13 23.9
2020-Aug-13 20:07 309 8 gusting 16 24.4
2020-Aug-13 20:02 253 7 gusting 13 24.4
2020-Aug-13 20:00 290 7 gusting 12 24.4
2020-Aug-13 19:52 268 7 gusting 13 24.4
2020-Aug-13 19:47 277 7 gusting 13 25.0
2020-Aug-13 19:45 310 7 gusting 12 24.4
2020-Aug-13 19:37 267 6 gusting 13 25.0
2020-Aug-13 19:32 298 6 gusting 13 25.0
2020-Aug-13 19:30 287 6 gusting 11 25.0
2020-Aug-13 19:22 284 7 gusting 13 25.6
2020-Aug-13 19:17 309 7 gusting 14 25.6
2020-Aug-13 19:15 288 6 gusting 13 25.6
2020-Aug-13 19:07 288 8 gusting 14 25.6
2020-Aug-13 19:02 266 9 gusting 13 26.1
2020-Aug-13 19:00 315 6 gusting 14 25.6
2020-Aug-13 18:52 277 8 gusting 15 26.1
2020-Aug-13 18:47 266 8 gusting 15 26.1
2020-Aug-13 18:45 279 7 gusting 13 26.1
2020-Aug-13 18:37 288 9 gusting 13 26.7
2020-Aug-13 18:32 286 8 gusting 13 26.7
2020-Aug-13 18:30 263 8 gusting 13 26.7
2020-Aug-13 18:22 287 8 gusting 19 26.7
2020-Aug-13 18:19 250 6 gusting 15 26.7
2020-Aug-13 18:12 281 9 gusting 19 26.7
2020-Aug-13 18:07 290 9 gusting 18 27.2
2020-Aug-13 18:02 286 11 gusting 18 27.2
2020-Aug-13 17:57 288 10 gusting 18 27.2
2020-Aug-13 17:52 306 10 gusting 17 27.2
2020-Aug-13 17:47 279 10 gusting 18 27.8
2020-Aug-13 17:42 308 10 gusting 19 27.8
2020-Aug-13 17:37 300 11 gusting 19 27.8
2020-Aug-13 17:32 292 12 gusting 19 27.8
2020-Aug-13 17:27 278 11 gusting 19 27.8
2020-Aug-13 17:22 275 11 gusting 19 27.8
2020-Aug-13 17:17 267 11 gusting 17 27.8
2020-Aug-13 17:12 281 9 gusting 19 28.3
2020-Aug-13 17:07 257 10 gusting 21 28.3
2020-Aug-13 17:02 288 12 gusting 21 28.3
2020-Aug-13 16:57 265 12 gusting 22 28.3
2020-Aug-13 16:52 287 12 gusting 22 28.3
2020-Aug-13 16:47 272 12 gusting 22 28.3
2020-Aug-13 16:42 270 12 gusting 21 28.9
2020-Aug-13 16:37 259 10 gusting 21 28.9
2020-Aug-13 16:32 272 9 gusting 19 28.9
2020-Aug-13 16:27 232 9 gusting 20 28.9
2020-Aug-13 16:22 271 11 gusting 20 28.9
2020-Aug-13 16:17 264 13 gusting 20 28.9
2020-Aug-13 16:12 263 11 gusting 20 29.4
2020-Aug-13 16:07 294 10 gusting 20 29.4
2020-Aug-13 16:02 277 7 gusting 19 29.4
2020-Aug-13 15:57 246 9 gusting 21 29.4
2020-Aug-13 15:52 301 10 gusting 21 29.4
2020-Aug-13 15:47 263 11 gusting 21 29.4
2020-Aug-13 15:42 263 12 gusting 20 30.0
2020-Aug-13 15:37 281 11 gusting 20 30.0
2020-Aug-13 15:32 298 9 gusting 17 30.6
2020-Aug-13 15:27 290 9 gusting 17 30.6
2020-Aug-13 15:22 276 8 gusting 17 30.6
2020-Aug-13 15:17 294 8 gusting 17 30.6
2020-Aug-13 15:12 261 9 gusting 16 30.6
2020-Aug-13 15:07 269 8 gusting 14 31.1
2020-Aug-13 15:02 288 6 gusting 16 31.1
2020-Aug-13 14:57 281 7 gusting 17 31.1
2020-Aug-13 14:52 325 9 gusting 17 31.1
2020-Aug-13 14:47 277 9 gusting 16 31.7
2020-Aug-13 14:42 275 8 gusting 16 31.7
2020-Aug-13 14:37 314 9 gusting 15 31.7
2020-Aug-13 14:32 315 9 gusting 15 31.7
2020-Aug-13 14:27 286 8 gusting 19 31.7
2020-Aug-13 14:22 260 10 gusting 19 31.7
2020-Aug-13 14:17 279 9 gusting 19 31.7
2020-Aug-13 14:12 300 9 gusting 16 31.7
2020-Aug-13 14:07 294 9 gusting 16 31.7
2020-Aug-13 14:02 288 9 gusting 14 31.7
2020-Aug-13 13:57 309 7 gusting 15 32.2
2020-Aug-13 13:52 277 6 gusting 15 32.2
2020-Aug-13 13:47 270 7 gusting 15 32.2
2020-Aug-13 13:42 291 7 gusting 14 32.2
2020-Aug-13 13:37 310 7 gusting 12 32.2
2020-Aug-13 13:32 310 7 gusting 14 32.2
2020-Aug-13 13:27 263 7 gusting 14 32.2
2020-Aug-13 13:22 292 7 gusting 16 31.7
2020-Aug-13 13:17 325 6 gusting 16 31.7
2020-Aug-13 13:12 280 6 gusting 13 32.2
2020-Aug-13 13:07 340 6 gusting 13 31.7
2020-Aug-13 13:02 323 6 gusting 12 32.2
2020-Aug-13 12:57 262 6 gusting 10 32.2
2020-Aug-13 12:52 322 6 gusting 12 32.2
2020-Aug-13 12:47 265 6 gusting 12 31.7
2020-Aug-13 12:42 329 5 gusting 10 31.7
2020-Aug-13 12:37 315 5 gusting 12 31.7
2020-Aug-13 12:32 307 6 gusting 12 31.1
2020-Aug-13 12:27 263 6 gusting 12 31.7
2020-Aug-13 12:22 328 6 gusting 13 31.1
2020-Aug-13 12:17 300 7 gusting 13 31.1
2020-Aug-13 12:12 286 6 gusting 11 30.6
2020-Aug-13 12:07 300 6 gusting 13 30.6
2020-Aug-13 12:02 256 6 gusting 13 30.6
2020-Aug-13 11:57 276 6 gusting 13 30.0
2020-Aug-13 11:52 293 7 gusting 12 30.0
2020-Aug-13 11:47 296 7 gusting 12 30.0
2020-Aug-13 11:42 300 7 gusting 12 29.4
2020-Aug-13 11:37 286 6 gusting 12 28.9
2020-Aug-13 11:32 286 6 gusting 12 28.9
2020-Aug-13 11:27 291 6 gusting 11 29.4
2020-Aug-13 11:22 306 6 gusting 11 29.4
2020-Aug-13 11:17 290 6 gusting 10 28.9
2020-Aug-13 11:12 282 6 gusting 13 28.9
2020-Aug-13 11:07 291 6 gusting 13 28.3
2020-Aug-13 11:02 288 6 gusting 13 28.3
2020-Aug-13 10:57 314 7 gusting 13 28.3
2020-Aug-13 10:52 298 7 gusting 16 28.9
2020-Aug-13 10:47 298 7 gusting 16 28.9
2020-Aug-13 10:42 302 7 gusting 16 28.9
2020-Aug-13 10:37 286 7 gusting 13 28.9
2020-Aug-13 10:32 307 7 gusting 12 28.9
2020-Aug-13 10:27 328 6 gusting 12 28.3
2020-Aug-13 10:22 296 6 gusting 12 28.3
2020-Aug-13 10:17 298 6 gusting 12 28.9
2020-Aug-13 10:12 269 6 gusting 10 28.3
2020-Aug-13 10:07 269 6 gusting 10 28.3
2020-Aug-13 10:02 311 5 gusting 10 28.9
2020-Aug-13 09:57 291 5 gusting 10 27.8
2020-Aug-13 09:52 300 5 gusting 10 27.2
2020-Aug-13 09:47 270 5 gusting 10 27.2
2020-Aug-13 09:42 287 5 gusting 10 27.2
2020-Aug-13 09:37 296 6 gusting 10 26.7
2020-Aug-13 09:32 315 5 gusting 10 26.7
2020-Aug-13 09:27 298 5 gusting 10 26.7
2020-Aug-13 09:22 271 6 gusting 10 26.7
2020-Aug-13 09:17 344 6 gusting 10 26.1
2020-Aug-13 09:12 282 6 gusting 10 25.6
2020-Aug-13 09:07 313 5 gusting 11 25.6
2020-Aug-13 09:02 297 5 gusting 11 25.6
2020-Aug-13 08:57 309 5 gusting 7 25.6
2020-Aug-13 08:52 312 4 gusting 8 25.6
2020-Aug-13 08:47 321 4 gusting 8 25.6
2020-Aug-13 08:42 296 4 gusting 8 25.6
2020-Aug-13 08:37 287 4 gusting 8 25.6
2020-Aug-13 08:32 256 5 gusting 8 25.0
2020-Aug-13 08:27 281 5 gusting 8 25.0
2020-Aug-13 08:22 277 4 gusting 7 25.0
2020-Aug-13 08:17 292 5 gusting 7 25.0
2020-Aug-13 08:12 283 4 gusting 7 24.4
2020-Aug-13 08:07 269 3 gusting 6 25.0
2020-Aug-13 08:02 315 3 gusting 6 25.0
2020-Aug-13 07:57 325 3 gusting 6 25.0
2020-Aug-13 07:52 322 2 gusting 6 25.0
2020-Aug-13 07:47 331 2 gusting 6 24.4
2020-Aug-13 07:45 323 1 gusting 6 24.4
2020-Aug-13 07:37 302 2 gusting 6 24.4
2020-Aug-13 07:32 302 3 gusting 6 24.4
2020-Aug-13 07:30 309 2 gusting 5 23.9
2020-Aug-13 07:22 309 3 gusting 6 23.9
2020-Aug-13 07:17 310 2 gusting 6 23.3
2020-Aug-13 07:12 279 3 gusting 6 23.3
2020-Aug-13 07:07 287 2 gusting 6 22.8
2020-Aug-13 07:02 315 2 gusting 5 22.8
2020-Aug-13 06:57 269 1 gusting 4 22.2
2020-Aug-13 06:52 254 2 gusting 5 22.2
2020-Aug-13 06:47 304 2 gusting 5 22.2
2020-Aug-13 06:42 314 1 gusting 5 22.2
2020-Aug-13 06:37 290 1 gusting 4 22.2
2020-Aug-13 06:32 298 2 gusting 6 21.7
2020-Aug-13 06:27 301 2 gusting 6 21.7
2020-Aug-13 06:22 292 2 gusting 6 21.7
2020-Aug-13 06:17 299 3 gusting 6 21.7
2020-Aug-13 06:12 286 3 gusting 6 21.7
2020-Aug-13 06:07 312 3 gusting 7 21.7
2020-Aug-13 06:02 300 3 gusting 7 21.1
2020-Aug-13 05:57 292 3 gusting 6 21.1
2020-Aug-13 05:52 280 2 gusting 4 20.6
2020-Aug-13 05:47 305 1 gusting 4 20.6
2020-Aug-13 05:42 311 1 gusting 3 20.6
2020-Aug-13 05:37 313 1 gusting 3 20.6
2020-Aug-13 05:32 313 1 gusting 3 20.6
2020-Aug-13 05:27 313 1 gusting 3 20.6
2020-Aug-13 05:22 315 1 gusting 3 20.6
2020-Aug-13 05:17 315 1 gusting 1 20.6
2020-Aug-13 05:12 316 0 gusting 1 20.6
2020-Aug-13 05:07 316 0 gusting 1 20.6
2020-Aug-13 05:02 316 0 gusting 2 20.6
2020-Aug-13 04:57 316 0 gusting 2 20.6
2020-Aug-13 04:52 316 1 gusting 2 20.6
2020-Aug-13 04:47 316 1 gusting 2 20.6
2020-Aug-13 04:42 316 0 gusting 2 20.6
2020-Aug-13 04:37 316 0 gusting 2 20.6
2020-Aug-13 04:32 316 1 gusting 2 20.6
2020-Aug-13 04:27 316 1 gusting 2 20.6
2020-Aug-13 04:22 316 1 gusting 2 20.6
2020-Aug-13 04:17 316 0 gusting 1 20.6
2020-Aug-13 04:12 316 0 gusting 1 20.6
2020-Aug-13 04:07 316 0 gusting 1 20.6
2020-Aug-13 04:02 316 20.6
2020-Aug-13 03:57 316 20.6
2020-Aug-13 03:52 316 0 gusting 1 20.6
2020-Aug-13 03:47 316 0 gusting 1 20.0
2020-Aug-13 03:42 316 0 gusting 1 20.0
2020-Aug-13 03:37 316 0 gusting 1 20.0
2020-Aug-13 03:32 316 0 gusting 1 20.0
2020-Aug-13 03:27 316 0 gusting 1 20.0
2020-Aug-13 03:22 315 20.0
2020-Aug-13 03:17 315 0 gusting 1 20.0
2020-Aug-13 03:12 315 0 gusting 0 20.0
2020-Aug-13 03:07 315 20.0
2020-Aug-13 03:02 315 20.0
2020-Aug-13 02:57 315 20.0
2020-Aug-13 02:52 315 20.0
2020-Aug-13 02:47 315 0 gusting 1 20.0
2020-Aug-13 02:45 315 20.0
2020-Aug-13 02:37 315 0 gusting 1 20.6
2020-Aug-13 02:32 315 20.6
2020-Aug-13 02:27 315 20.6
2020-Aug-13 02:22 315 0 gusting 2 20.6
2020-Aug-13 02:17 315 0 gusting 1 20.6
2020-Aug-13 02:12 315 0 gusting 1 20.6
2020-Aug-13 02:07 315 21.1
2020-Aug-13 02:02 315 21.1
2020-Aug-13 02:00 315 21.1
2020-Aug-13 01:52 315 0 gusting 4 21.1
2020-Aug-13 01:47 315 1 gusting 5 21.7
2020-Aug-13 01:45 315 21.1
2020-Aug-13 01:37 293 2 gusting 6 21.1
2020-Aug-13 01:32 292 1 gusting 2 21.1
2020-Aug-13 01:30 292 1 gusting 4 20.6
2020-Aug-13 01:22 315 0 gusting 2 21.1
2020-Aug-13 01:17 315 1 gusting 2 21.1
2020-Aug-13 01:15 315 21.1
2020-Aug-13 01:07 315 1 gusting 3 21.1
2020-Aug-13 01:02 315 1 gusting 4 21.7
2020-Aug-13 01:00 315 0 gusting 3 21.1
2020-Aug-13 00:52 312 2 gusting 3 21.7
2020-Aug-13 00:47 304 2 gusting 4 21.7
2020-Aug-13 00:42 332 1 gusting 6 21.7
2020-Aug-13 00:37 349 2 gusting 6 21.7
2020-Aug-13 00:32 345 2 gusting 5 21.7
2020-Aug-13 00:27 343 3 gusting 7 21.7
2020-Aug-13 00:22 344 3 gusting 9 21.7
2020-Aug-13 00:17 287 3 gusting 9 21.7
2020-Aug-13 00:12 346 3 gusting 6 21.7
2020-Aug-13 00:07 335 3 gusting 6 22.2
2020-Aug-13 00:02 286 3 gusting 6 22.2
2020-Aug-12 23:57 281 2 gusting 5 22.2
2020-Aug-12 23:52 355 1 gusting 2 22.2
2020-Aug-12 23:47 348 0 gusting 3 22.2
2020-Aug-12 23:42 346 0 gusting 3 22.2
2020-Aug-12 23:37 346 1 gusting 4 22.8
2020-Aug-12 23:32 346 2 gusting 4 22.8
2020-Aug-12 23:27 024 2 gusting 4 23.3
2020-Aug-12 23:22 348 1 gusting 4 23.3
2020-Aug-12 23:17 026 1 gusting 7 23.3
2020-Aug-12 23:12 014 2 gusting 10 23.9
2020-Aug-12 23:07 026 3 gusting 11 23.9
2020-Aug-12 23:02 351 5 gusting 11 24.4
2020-Aug-12 22:57 342 5 gusting 11 25.0
2020-Aug-12 22:52 355 5 gusting 9 25.0
2020-Aug-12 22:47 331 5 gusting 9 25.0
2020-Aug-12 22:42 333 4 gusting 8 25.0
2020-Aug-12 22:37 323 3 gusting 6 25.0
2020-Aug-12 22:32 298 2 gusting 5 25.0
2020-Aug-12 22:27 25.0
2020-Aug-12 22:22 341 2 gusting 4 25.0
2020-Aug-12 22:17 342 2 gusting 4 24.4
2020-Aug-12 22:12 327 2 gusting 4 24.4
2020-Aug-12 22:07 326 1 gusting 4 24.4
2020-Aug-12 22:02 020 1 gusting 4 24.4
2020-Aug-12 21:57 084 2 gusting 4 24.4
2020-Aug-12 21:52 098 2 gusting 3 24.4
2020-Aug-12 21:47 053 1 gusting 4 24.4
2020-Aug-12 21:42 048 1 gusting 4 24.4
2020-Aug-12 21:37 059 1 gusting 4 24.4
2020-Aug-12 21:32 017 1 gusting 3 24.4
2020-Aug-12 21:27 067 1 gusting 3 24.4
2020-Aug-12 21:22 101 1 gusting 6 24.4
2020-Aug-12 21:17 101 1 gusting 6 24.4
2020-Aug-12 21:12 101 2 gusting 6 24.4
2020-Aug-12 21:07 101 2 gusting 5 24.4
2020-Aug-12 21:02 117 2 gusting 5 25.0
2020-Aug-12 20:57 096 2 gusting 6 25.0
2020-Aug-12 20:52 096 2 gusting 6 25.0
2020-Aug-12 20:47 088 2 gusting 6 25.0
2020-Aug-12 20:42 101 2 gusting 6 25.0
2020-Aug-12 20:37 088 1 gusting 5 25.0
2020-Aug-12 20:32 075 1 gusting 7 25.0
2020-Aug-12 20:27 050 2 gusting 8 25.6
2020-Aug-12 20:22 104 3 gusting 8 25.6
2020-Aug-12 20:17 099 3 gusting 8 25.6
2020-Aug-12 20:12 105 2 gusting 7 25.6
2020-Aug-12 20:07 104 3 gusting 9 25.6
2020-Aug-12 20:02 130 5 gusting 10 25.6
2020-Aug-12 19:57 102 6 gusting 10 25.6
2020-Aug-12 19:52 093 5 gusting 9 25.6
2020-Aug-12 19:47 123 6 gusting 10 25.6
2020-Aug-12 19:42 123 6 gusting 10 25.6
2020-Aug-12 19:37 101 5 gusting 6 25.6
2020-Aug-12 19:32 094 3 gusting 8 25.6
2020-Aug-12 19:27 083 3 gusting 8 25.6
2020-Aug-12 19:22 078 3 gusting 8 25.6
2020-Aug-12 19:17 094 2 gusting 6 25.6
2020-Aug-12 19:12 181 2 gusting 4 25.6
2020-Aug-12 19:07 106 1 gusting 7 25.6
2020-Aug-12 19:02 25.6
2020-Aug-12 18:57 086 4 gusting 9 25.6
2020-Aug-12 18:52 105 5 gusting 9 25.6
2020-Aug-12 18:47 110 4 gusting 7 25.6
2020-Aug-12 18:42 108 4 gusting 8 26.1
2020-Aug-12 18:37 096 4 gusting 8 25.6
2020-Aug-12 18:32 123 5 gusting 10 26.1
2020-Aug-12 18:27 122 5 gusting 10 26.1
2020-Aug-12 18:22 148 6 gusting 10 26.1
2020-Aug-12 18:17 107 4 gusting 10 26.1
2020-Aug-12 18:12 118 4 gusting 9 26.1
2020-Aug-12 18:07 111 5 gusting 9 26.1
2020-Aug-12 18:02 103 4 gusting 7 26.7
2020-Aug-12 17:57 130 3 gusting 7 26.7
2020-Aug-12 17:52 107 3 gusting 8 26.7
2020-Aug-12 17:47 096 4 gusting 11 26.7
2020-Aug-12 17:42 132 6 gusting 12 26.7
2020-Aug-12 17:37 131 6 gusting 12 26.7
2020-Aug-12 17:32 100 5 gusting 12 26.7
2020-Aug-12 17:27 140 6 gusting 11 26.7
2020-Aug-12 17:22 096 6 gusting 10 26.7
2020-Aug-12 17:17 100 6 gusting 13 26.7
2020-Aug-12 17:12 126 6 gusting 13 26.7
2020-Aug-12 17:07 104 6 gusting 13 26.7
2020-Aug-12 17:02 111 6 gusting 12 27.2
2020-Aug-12 16:57 126 6 gusting 12 27.2
2020-Aug-12 16:52 099 6 gusting 13 27.2
2020-Aug-12 16:47 117 6 gusting 15 27.2
2020-Aug-12 16:42 106 7 gusting 15 27.2
2020-Aug-12 16:37 151 6 gusting 9 27.8
2020-Aug-12 16:32 096 5 gusting 9 27.8
2020-Aug-12 16:27 111 5 gusting 13 28.3
2020-Aug-12 16:22 146 6 gusting 13 27.8
2020-Aug-12 16:17 152 6 gusting 13 27.8
2020-Aug-12 16:12 120 5 gusting 13 28.3
2020-Aug-12 16:07 162 6 gusting 13 27.8
2020-Aug-12 16:02 119 8 gusting 14 27.8
2020-Aug-12 16:00 099 6 gusting 13 27.2
2020-Aug-12 15:52 094 7 gusting 13 27.8
2020-Aug-12 15:47 101 6 gusting 13 27.8
2020-Aug-12 15:42 107 6 gusting 14 27.8
2020-Aug-12 15:37 093 7 gusting 14 27.2
2020-Aug-12 15:32 099 7 gusting 17 27.2
2020-Aug-12 15:27 114 7 gusting 17 26.7
2020-Aug-12 15:22 123 7 gusting 18 26.7
2020-Aug-12 15:17 119 7 gusting 18 26.7
2020-Aug-12 15:12 084 7 gusting 14 26.7
2020-Aug-12 15:07 100 6 gusting 14 26.7
2020-Aug-12 15:02 115 6 gusting 14 26.7
2020-Aug-12 14:57 132 7 gusting 15 26.7
2020-Aug-12 14:52 097 8 gusting 15 26.7
2020-Aug-12 14:47 098 8 gusting 13 26.7
2020-Aug-12 14:42 109 6 gusting 15 26.7
2020-Aug-12 14:37 123 6 gusting 15 26.7
2020-Aug-12 14:32 095 6 gusting 15 26.7
2020-Aug-12 14:27 110 6 gusting 14 26.7
2020-Aug-12 14:22 103 6 gusting 17 27.2
2020-Aug-12 14:17 111 7 gusting 17 27.2
2020-Aug-12 14:12 080 7 gusting 17 27.2
2020-Aug-12 14:07 105 8 gusting 14 27.2
2020-Aug-12 14:02 114 7 gusting 19 27.8
2020-Aug-12 13:57 115 8 gusting 19 27.8
2020-Aug-12 13:52 115 8 gusting 19 27.8
2020-Aug-12 13:47 096 7 gusting 16 28.3
2020-Aug-12 13:45 101 7 gusting 16 27.8
2020-Aug-12 13:37 114 8 gusting 15 28.3
2020-Aug-12 13:32 098 8 gusting 13 28.9
2020-Aug-12 13:30 145 6 gusting 13 28.3
2020-Aug-12 13:22 146 8 gusting 14 28.9
2020-Aug-12 13:17 117 8 gusting 15 28.9
2020-Aug-12 13:12 103 8 gusting 15 29.4
2020-Aug-12 13:07 117 7 gusting 15 29.4
2020-Aug-12 13:02 098 8 gusting 15 29.4
2020-Aug-12 13:00 161 7 gusting 15 28.9
2020-Aug-12 12:52 102 7 gusting 16 28.9
2020-Aug-12 12:47 106 8 gusting 16 29.4
2020-Aug-12 12:42 147 7 gusting 14 29.4
2020-Aug-12 12:37 113 6 gusting 14 28.9
2020-Aug-12 12:32 105 7 gusting 14 28.9
2020-Aug-12 12:27 103 7 gusting 13 29.4
2020-Aug-12 12:22 119 7 gusting 13 28.9
2020-Aug-12 12:17 111 6 gusting 13 28.9
2020-Aug-12 12:12 107 7 gusting 14 29.4
2020-Aug-12 12:07 110 7 gusting 14 28.9
2020-Aug-12 12:02 103 5 gusting 14 28.9
2020-Aug-12 11:57 107 7 gusting 17 28.9
2020-Aug-12 11:52 116 7 gusting 17 28.9
2020-Aug-12 11:47 124 6 gusting 17 28.9
2020-Aug-12 11:42 110 7 gusting 15 29.4
2020-Aug-12 11:37 113 7 gusting 15 29.4
2020-Aug-12 11:32 139 7 gusting 15 29.4
2020-Aug-12 11:27 088 8 gusting 16 28.9
2020-Aug-12 11:22 109 7 gusting 16 28.9
2020-Aug-12 11:17 101 8 gusting 16 28.9
2020-Aug-12 11:12 101 8 gusting 15 28.9
2020-Aug-12 11:07 108 8 gusting 15 28.9
2020-Aug-12 11:02 128 8 gusting 19 28.3